Weather Roundup
Issued by NWS Chicago, IL

Home | Current Version | Previous Version | Text Only | Print | Product List | Glossary Off
Versions: 1 2 3 4 5 6 7 8 9 10 11 12 13 14 15 16 17 18 19 20 21 22 23 24 25 26 27 28 29 30 31 32 33 34 35 36 37 38 39 40 41 42 43 44 45 46 47 48 49 50

000
NZUS59 KLOT 270903
HRRLOT

CHICAGO AREA WEATHER ROUNDUP
NATIONAL WEATHER SERVICE CHICAGO/ROMEOVILLE IL
300 AM CST MON FEB 27 2017

NOTE: "FAIR" INDICATES FEW OR NO CLOUDS BELOW 12,000 FEET WITH NO
SIGNIFICANT WEATHER AND/OR OBSTRUCTIONS TO VISIBILITY.

* THESE STATIONS ARE NOT UNDER NWS QUALITY CONTROL. THEY ALSO MAY NOT
  REPORT WEATHER SUCH AS PRECIPITATION OR FOG.

ILZ005-006-012>014-019>023-271000-
NORTHEAST ILLINOIS

CITY           SKY/WX    TMP DP  RH WIND       PRES   REMARKS
OHARE          PTCLDY    33  24  69 W3        30.09R
MIDWAY         PTCLDY    36  24  62 S3        30.11R
AURORA         PTCLDY    32  25  75 SW6       30.10S WCI  26
LANSING*       MOCLDY    30  27  88 SW5       30.13R WCI  25
JOLIET*        PTCLDY    33  28  79 S3        30.12R
WAUKEGAN       PTCLDY    27  25  92 CALM      30.08S
DUPAGE AIRPORT PTCLDY    30  23  75 CALM      30.09R
WHEELING       CLEAR     31  25  78 S3        30.11R
KANKAKEE*      CLEAR     29  24  82 CALM      30.14S
MORRIS*        PTCLDY    31  25  81 CALM      30.11R
LEWIS AIRPORT* MOCLDY    31  28  88 SW6       30.12R WCI  25
NORTHERLY ISL    N/A     37  24  60 S2          N/A
$$

WIZ051-052-058>065-066-070>072-271000-
SOUTHEAST WISCONSIN

CITY           SKY/WX    TMP DP  RH WIND       PRES   REMARKS
MILWAUKEE      CLEAR     29  20  69 CALM      30.08S
KENOSHA*       PTCLDY    29  25  85 CALM      30.09R
RACINE*        PTCLDY    25  21  85 SW5       30.11R WCI  19
WAUKESHA       CLEAR     25  21  86 CALM      30.08S
WEST BEND      CLEAR     27  23  86 CALM      30.07R
$$

INZ001>003-010>013-019-020-271000-
NORTHWEST INDIANA

CITY           SKY/WX    TMP DP  RH WIND       PRES   REMARKS
GARY*          PTCLDY    36  24  62 SW5       30.13R
MICHIGAN CITY* NOT AVBL
RENSSELAER*    NOT AVBL
VALPARAISO     CLEAR     32  24  72 SW5       30.13S WCI  27
$$

LMZ740>746-271000-
SOUTHERN LAKE MICHIGAN

STATION/POSITION TIME  SKY/WX   TEMP WIND        PRES    VSBY
                                AIR  DIR/SP/G
                 (UTC)          (F)  (DEG/KT/KT) (MB)    (MI)
HARRISON CRIB    0840            41  230/ 17/ 20   N/A
BURNHAM HARBOR   0900            37  240/  5/  7   N/A
CALUMET HARBOR   0830            36  210/  5/  7 1019.0R
BURNS HARBOR     0840            38  210/ 12/ 18 1020.3R
MICHIGAN CITY    0840            37  190/ 14/ 17   N/A
$$

ABBREVIATIONS USED IN REMARKS
   TC - TEMPERATURE IN CELSIUS
  WCI - WIND CHILL INDEX
   HX - HEAT INDEX
  VSB - VISIBILITY
$$



USA.gov is the U.S. government's official web portal to all federal, state and local government web resources and services.